Hourly Weather Chamovo

Today, 12 June, Saturday

Time Temperature Precipitation Wind Pressure Humidity
00:00 +13°C° 0 mm 1 mps 738 mmHg 95%
01:00 +13°C° 0 mm 1 mps 738 mmHg 95%
02:00 +13°C° 0 mm 1 mps 738 mmHg 96%
03:00 +14°C° 0 mm 1 mps 738 mmHg 95%
04:00 +14°C° 0 mm 1 mps 737 mmHg 95%
05:00 +14°C° 0 mm 1 mps 737 mmHg 94%
06:00 +15°C° 0 mm 1 mps 737 mmHg 92%
07:00 +14°C° 0 mm 0 mps 737 mmHg 89%
08:00 +15°C° 0 mm 0 mps 737 mmHg 85%
09:00 +16°C° 0 mm 0 mps 737 mmHg 81%
10:00 +19°C° 0 mm 1 mps 737 mmHg 77%
11:00 +19°C° 0 mm 1 mps 737 mmHg 73%
12:00 +20°C° 0.1 mm 1 mps 737 mmHg 69%
13:00 +21°C° 0.1 mm 1 mps 736 mmHg 65%
14:00 +21°C° 0.1 mm 2 mps 736 mmHg 61%
15:00 +21°C° 0.2 mm 2 mps 736 mmHg 66%
16:00 +20°C° 0.2 mm 2 mps 735 mmHg 71%
17:00 +20°C° 0.2 mm 2 mps 735 mmHg 76%
18:00 +19°C° 0.2 mm 2 mps 735 mmHg 82%
19:00 +17°C° 0.2 mm 2 mps 735 mmHg 87%
20:00 +16°C° 0.2 mm 1 mps 734 mmHg 92%
21:00 +15°C° 0 mm 2 mps 734 mmHg 93%
22:00 +14°C° 0 mm 2 mps 734 mmHg 94%
23:00 +14°C° 0 mm 2 mps 734 mmHg 94%

Tomorrow, 13 June, Sunday

Time Temperature Precipitation Wind Pressure Humidity
00:00 +13°C° 0 mm 2 mps 734 mmHg 95%
01:00 +13°C° 0 mm 2 mps 734 mmHg 95%
02:00 +13°C° 0 mm 2 mps 733 mmHg 96%
03:00 +13°C° 0 mm 2 mps 733 mmHg 96%
04:00 +13°C° 0 mm 2 mps 733 mmHg 95%
05:00 +14°C° 0 mm 2 mps 733 mmHg 95%
06:00 +16°C° 0.1 mm 3 mps 733 mmHg 89%
07:00 +17°C° 0.1 mm 3 mps 733 mmHg 83%
08:00 +19°C° 0.1 mm 4 mps 733 mmHg 77%
09:00 +20°C° 0.7 mm 4 mps 733 mmHg 76%
10:00 +20°C° 0.7 mm 4 mps 733 mmHg 75%
11:00 +21°C° 0.7 mm 4 mps 733 mmHg 74%
12:00 +21°C° 0.7 mm 4 mps 732 mmHg 75%
13:00 +21°C° 0.7 mm 4 mps 732 mmHg 76%
14:00 +22°C° 0.7 mm 4 mps 732 mmHg 78%
15:00 +21°C° 0.6 mm 3 mps 732 mmHg 81%
16:00 +21°C° 0.6 mm 3 mps 732 mmHg 84%
17:00 +20°C° 0.6 mm 3 mps 732 mmHg 87%
18:00 +19°C° 0.3 mm 2 mps 733 mmHg 90%
19:00 +18°C° 0.3 mm 2 mps 733 mmHg 93%
20:00 +17°C° 0.3 mm 2 mps 733 mmHg 96%
21:00 +16°C° 0.1 mm 2 mps 733 mmHg 97%
22:00 +15°C° 0.1 mm 2 mps 733 mmHg 97%
23:00 +13°C° 0.1 mm 3 mps 734 mmHg 98%

Day after tomorrow, 14 June, Monday

Time Temperature Precipitation Wind Pressure Humidity
00:00 +13°C° 0 mm 3 mps 734 mmHg 97%
01:00 +12°C° 0 mm 3 mps 734 mmHg 96%
02:00 +12°C° 0 mm 3 mps 735 mmHg 95%
03:00 +12°C° 0 mm 3 mps 735 mmHg 96%
04:00 +13°C° 0 mm 2 mps 736 mmHg 96%
05:00 +13°C° 0 mm 2 mps 736 mmHg 97%
06:00 +14°C° 0 mm 2 mps 737 mmHg 95%
07:00 +13°C° 0 mm 3 mps 737 mmHg 93%
08:00 +13°C° 0 mm 3 mps 738 mmHg 91%
09:00 +14°C° 0 mm 3 mps 738 mmHg 86%
10:00 +16°C° 0 mm 3 mps 739 mmHg 81%
11:00 +17°C° 0 mm 3 mps 739 mmHg 76%
12:00 +18°C° 0 mm 3 mps 740 mmHg 75%
13:00 +18°C° 0 mm 3 mps 740 mmHg 74%
14:00 +18°C° 0 mm 3 mps 740 mmHg 73%
15:00 +18°C° 0 mm 3 mps 740 mmHg 73%
16:00 +18°C° 0 mm 3 mps 740 mmHg 73%
17:00 +18°C° 0 mm 3 mps 741 mmHg 73%
18:00 +17°C° 0 mm 2 mps 741 mmHg 79%
19:00 +16°C° 0 mm 2 mps 741 mmHg 84%
20:00 +15°C° 0 mm 2 mps 741 mmHg 89%
21:00 +14°C° 0 mm 2 mps 741 mmHg 91%
22:00 +14°C° 0 mm 2 mps 741 mmHg 93%
23:00 +13°C° 0 mm 1 mps 741 mmHg 95%

15 June, Tuesday

Time Temperature Precipitation Wind Pressure Humidity
00:00 +13°C° 0 mm 1 mps 741 mmHg 96%
01:00 +13°C° 0 mm 1 mps 741 mmHg 96%
02:00 +12°C° 0 mm 1 mps 741 mmHg 97%
03:00 +13°C° 0 mm 1 mps 741 mmHg 96%
04:00 +13°C° 0 mm 1 mps 741 mmHg 96%
05:00 +14°C° 0 mm 1 mps 741 mmHg 95%
06:00 +15°C° 0 mm 1 mps 741 mmHg 88%
07:00 +17°C° 0 mm 2 mps 741 mmHg 81%
08:00 +18°C° 0 mm 2 mps 741 mmHg 74%
09:00 +19°C° 0 mm 2 mps 741 mmHg 72%
10:00 +19°C° 0 mm 2 mps 741 mmHg 69%
11:00 +20°C° 0 mm 2 mps 741 mmHg 67%
12:00 +20°C° 0 mm 2 mps 741 mmHg 66%
13:00 +21°C° 0 mm 2 mps 741 mmHg 65%
14:00 +21°C° 0 mm 2 mps 741 mmHg 64%
15:00 +21°C° 0 mm 2 mps 740 mmHg 65%
16:00 +21°C° 0 mm 2 mps 740 mmHg 67%
17:00 +21°C° 0 mm 2 mps 740 mmHg 68%
18:00 +20°C° 0.1 mm 2 mps 740 mmHg 74%
19:00 +18°C° 0.1 mm 2 mps 740 mmHg 81%
20:00 +16°C° 0.1 mm 2 mps 739 mmHg 87%
21:00 +15°C° 0 mm 2 mps 740 mmHg 88%
22:00 +14°C° 0 mm 2 mps 740 mmHg 89%
23:00 +13°C° 0 mm 2 mps 740 mmHg 90%

16 June, Wednesday

Time Temperature Precipitation Wind Pressure Humidity
00:00 +13°C° 0 mm 2 mps 740 mmHg 91%
01:00 +13°C° 0 mm 2 mps 740 mmHg 93%
02:00 +13°C° 0 mm 2 mps 740 mmHg 95%
03:00 +14°C° 0 mm 2 mps 740 mmHg 94%
04:00 +14°C° 0 mm 2 mps 740 mmHg 94%
05:00 +15°C° 0 mm 2 mps 740 mmHg 93%
06:00 +16°C° 0 mm 2 mps 740 mmHg 88%
07:00 +18°C° 0 mm 2 mps 740 mmHg 82%
08:00 +20°C° 0 mm 2 mps 741 mmHg 77%
09:00 +20°C° 0.2 mm 3 mps 741 mmHg 72%
10:00 +21°C° 0.2 mm 3 mps 741 mmHg 68%
11:00 +22°C° 0.2 mm 3 mps 741 mmHg 64%
12:00 +23°C° 0 mm 4 mps 741 mmHg 59%
13:00 +23°C° 0 mm 4 mps 741 mmHg 54%
14:00 +25°C° 0 mm 4 mps 741 mmHg 49%
15:00 +23°C° 0 mm 4 mps 741 mmHg 51%
16:00 +24°C° 0 mm 3 mps 742 mmHg 52%
17:00 +22°C° 0 mm 3 mps 742 mmHg 53%
18:00 +20°C° 0 mm 3 mps 742 mmHg 60%
19:00 +18°C° 0 mm 2 mps 743 mmHg 67%
20:00 +16°C° 0 mm 2 mps 743 mmHg 74%
21:00 +15°C° 0 mm 2 mps 743 mmHg 75%
22:00 +15°C° 0 mm 2 mps 744 mmHg 76%
23:00 +14°C° 0 mm 2 mps 744 mmHg 77%

17 June, Thursday

Time Temperature Precipitation Wind Pressure Humidity
00:00 +13°C° 0 mm 2 mps 745 mmHg 77%
01:00 +12°C° 0 mm 2 mps 745 mmHg 77%
02:00 +12°C° 0 mm 2 mps 746 mmHg 78%
03:00 +12°C° 0 mm 2 mps 746 mmHg 77%
04:00 +12°C° 0 mm 2 mps 746 mmHg 76%
05:00 +12°C° 0 mm 2 mps 747 mmHg 75%
06:00 +14°C° 0 mm 2 mps 747 mmHg 67%
07:00 +17°C° 0 mm 2 mps 747 mmHg 60%
08:00 +19°C° 0 mm 3 mps 748 mmHg 53%
09:00 +20°C° 0 mm 3 mps 748 mmHg 49%
10:00 +21°C° 0 mm 3 mps 748 mmHg 46%
11:00 +22°C° 0 mm 3 mps 748 mmHg 42%
12:00 +22°C° 0 mm 3 mps 748 mmHg 42%
13:00 +24°C° 0 mm 3 mps 748 mmHg 41%
14:00 +24°C° 0 mm 3 mps 748 mmHg 41%
15:00 +24°C° 0 mm 2 mps 748 mmHg 45%
16:00 +24°C° 0 mm 2 mps 748 mmHg 49%
17:00 +24°C° 0 mm 2 mps 748 mmHg 54%
18:00 +21°C° 0 mm 2 mps 748 mmHg 61%
19:00 +19°C° 0 mm 2 mps 748 mmHg 68%
20:00 +18°C° 0 mm 1 mps 748 mmHg 76%
21:00 +16°C° 0 mm 1 mps 748 mmHg 76%
22:00 +15°C° 0 mm 1 mps 748 mmHg 77%
23:00 +14°C° 0 mm 1 mps 748 mmHg 78%
Show more

We Need Your Consent

Meteoprog and our Service Providers may store and access personal data such as cookies, device identifiers or other similar technologies on your device and process such data to personalise content and ads, as well as provide social media features and to analyse the traffic.

  • Store and/or access information on your device

    Cookies, device identifiers or other information can be stored or accessed on your device for the purposes indicated above.

  • Personalised ads and content, ad and content measurement, audience insights, and products development

    Ads and content can be personalised based on a profile. More data can be added to better personalise ads and content. Ad and content performance can be measured. Insights about the audience who saw the ads and content can be derived. Such data can be used to develop or improve user’s experience, systems and software.

By clicking ‘I Agree’ you will allow the use of indicated cookies, device identifiers, web beacons or other similar technologies. Your settings can be changed in the browser on your device.

For certain purposes, legitimate interests may be relied on, rather than consent. You can read more about this in our Privacy and Cookie Policy.